[[{"header":{"parameterUnit":"m.s-1","parameterCategory":1,"la1":30.2991,"la2":30.254,"lo1":-89.0895,"lo2":-89.0444,"dy":0.0017,"dx":0.0017,"nx":28,"ny":28,"refTime":"2024-05-20T09:00:00:Z","depth":0,"parameterNumber":2,"parameterNumberName":"U-component_of_WINDS"},"data":[0,0,0,0,0,0,0,0,0,0,0,0,0,0,0,0,0,0,0,0,0,0,0,0,0,0,0,0,0,0,0,0,0,0,0,0,0,0,0,0,0,0,0,0,0,0,0,0,0,0,0,0,0,0,0,0,0,0,-1.3908,-1.3908,0,-1.3901,-1.3901,-1.3901,-1.3871,-1.387,-1.3869,-1.3869,-1.3862,-1.3862,-1.3863,0,0,0,0,0,0,0,0,0,0,0,0,0,-1.3896,-1.3897,-1.3908,-1.3908,-1.3908,-1.3901,-1.3901,-1.3901,-1.3871,-1.387,-1.3869,-1.3868,-1.3862,-1.3862,-1.3863,0,0,0,0,0,0,0,0,0,0,0,0,0,-1.3897,-1.3897,-1.3908,-1.3892,-1.3891,-1.3901,-1.3901,-1.3901,-1.3871,-1.387,-1.3869,-1.3868,-1.3862,-1.3862,-1.3863,-1.3888,0,0,-1.3865,-1.3866,0,0,0,0,0,0,0,0,-1.3897,-1.3897,-1.3895,-1.3893,-1.3892,-1.3886,-1.3894,-1.3897,-1.3871,-1.3879,-1.3869,-1.3867,-1.3871,-1.3871,-1.3872,-1.3888,-1.3888,-1.3865,-1.3866,-1.3866,-1.3866,0,0,0,0,0,0,0,-1.3897,-1.3897,-1.3905,-1.3895,-1.3893,-1.3886,-1.3884,-1.3895,-1.3881,-1.3878,-1.3876,-1.3875,-1.387,-1.3871,-1.3871,-1.3888,-1.3865,-1.3866,-1.3866,-1.3867,-1.3925,-1.3926,0,0,0,0,0,0,-1.3899,-1.3898,-1.3905,-1.3905,-1.3892,-1.3887,-1.3885,-1.3889,-1.388,-1.3878,-1.3876,-1.3874,-1.387,-1.387,-1.3871,-1.39,-1.3866,-1.3867,-1.3867,-1.3924,-1.3925,-1.3926,0,0,0,0,0,0,-1.3899,-1.39,-1.3906,-1.3901,-1.3901,-1.3888,-1.3892,-1.3889,-1.389,-1.3879,-1.3877,-1.388,-1.387,-1.387,-1.3884,-1.3899,-1.3867,-1.3868,-1.3922,-1.3924,-1.3926,-1.3958,0,0,0,0,0,0,-1.3899,-1.39,-1.3909,-1.3901,-1.3901,-1.3919,-1.3893,-1.389,-1.3892,-1.3888,-1.3882,-1.388,-1.3869,-1.3883,-1.3885,-1.39,-1.3868,-1.3921,-1.3923,-1.3925,-1.3956,-1.3961,-1.3965,0,0,0,0,0,-1.3898,-1.3919,-1.391,-1.3911,-1.3913,-1.392,-1.392,-1.3907,-1.3893,-1.3902,-1.3895,-1.388,-1.3898,-1.3885,-1.3887,-1.3902,-1.392,-1.3923,-1.3925,-1.3954,-1.396,-1.3965,0,0,0,0,0,0,-1.3929,-1.3917,-1.3907,-1.3926,-1.3924,-1.3915,-1.3926,-1.3914,-1.3916,-1.3913,-1.3896,-1.3895,-1.3912,-1.3908,-1.3895,-1.3926,-1.3906,-1.3909,-1.3928,-1.3933,-1.3938,-1.3938,-1.3869,0,0,0,0,0,-1.3938,-1.3945,-1.3934,-1.3952,-1.3952,-1.3939,-1.3942,-1.3932,-1.3929,-1.3928,-1.3922,-1.3921,-1.3926,-1.393,-1.3934,-1.3956,-1.3954,-1.3967,-1.3971,-1.3975,-1.3978,-1.3989,-1.3995,-1.3935,-1.3935,-1.3935,0,0,-1.3957,-1.3951,-1.3956,-1.3958,-1.3955,-1.3963,-1.3939,-1.3948,-1.3953,-1.393,-1.3943,-1.3939,-1.3936,-1.3954,-1.3962,-1.3952,-1.3994,-1.3979,-1.3982,-1.3982,-1.3992,-1.3998,-1.4003,-1.3936,-1.3936,-1.3936,0,0,-1.3994,-1.3991,-1.4005,-1.4003,-1.3999,-1.3991,-1.3995,-1.3987,-1.3984,-1.3996,-1.3979,-1.3986,-1.3995,-1.3993,-1.3994,-1.4032,-1.4018,-1.4034,-1.4058,-1.4069,-1.4074,-1.4078,-1.4091,-1.4096,-1.4037,-1.4037,-1.4037,0,-1.4018,-1.4028,-1.4014,-1.4024,-1.4025,-1.4004,-1.4019,-1.4018,-1.4016,-1.4017,-1.4006,-1.4017,-1.4014,-1.4031,-1.4041,-1.4042,-1.4045,-1.4034,-1.4075,-1.4079,-1.4082,-1.4095,-1.41,-1.4039,-1.4038,-1.4038,-1.4038,0,-1.4057,-1.4065,-1.4077,-1.4075,-1.4078,-1.409,-1.4078,-1.4082,-1.4072,-1.4065,-1.4079,-1.4074,-1.4077,-1.4081,-1.4071,-1.4097,-1.4091,-1.4077,-1.4057,-1.409,-1.4101,-1.4106,-1.4041,-1.4041,-1.404,-1.404,0,0,-1.4113,-1.4104,-1.4108,-1.4107,-1.4102,-1.4108,-1.412,-1.4122,-1.4127,-1.4126,-1.4136,-1.4144,-1.4132,-1.4132,-1.4122,-1.4132,-1.4163,-1.4118,-1.4117,-1.4126,-1.4191,-1.4201,-1.4206,-1.4154,-1.4155,-1.4155,-1.4191,0,-1.4148,-1.4167,-1.4155,-1.4176,-1.4182,-1.4163,-1.4173,-1.4172,-1.4166,-1.4171,-1.4165,-1.4171,-1.4154,-1.4154,-1.4164,-1.4157,-1.4175,-1.4154,-1.4162,-1.4163,-1.4163,-1.4212,-1.4222,-1.4256,-1.4195,-1.4196,-1.4197,0,-1.4192,-1.4193,-1.4215,-1.4209,-1.4211,-1.422,-1.4222,-1.4227,-1.4225,-1.422,-1.4221,-1.4209,-1.422,-1.4201,-1.4216,-1.4202,-1.4205,-1.4202,-1.4203,-1.4203,-1.4181,-1.4213,-1.4267,-1.4271,-1.4204,-1.4203,-1.4202,0,-1.423,-1.4238,-1.4251,-1.4251,-1.4245,-1.4251,-1.4249,-1.4246,-1.4248,-1.425,-1.4251,-1.4254,-1.4256,-1.4259,-1.4248,-1.4235,-1.4264,-1.4244,-1.426,-1.4261,-1.4267,-1.4267,-1.4321,-1.427,-1.427,-1.427,-1.427,0,-1.427,-1.4284,-1.4268,-1.4277,-1.4292,-1.4278,-1.4293,-1.4289,-1.4286,-1.4294,-1.4278,-1.4285,-1.427,-1.4276,-1.4268,-1.4282,-1.4283,-1.4279,-1.4277,-1.428,-1.4281,-1.4281,-1.4278,-1.4271,-1.4271,-1.427,-1.427,0,-1.4315,-1.4305,-1.4319,-1.4311,-1.431,-1.4321,-1.4315,-1.4323,-1.4316,-1.4326,-1.4327,-1.4317,-1.4323,-1.4313,-1.4318,-1.4312,-1.4331,-1.4325,-1.4332,-1.433,-1.4346,-1.4345,-1.4403,-1.441,-1.4354,-1.4355,-1.4355,0,-1.4341,-1.4351,-1.4345,-1.4349,-1.4347,-1.4354,-1.4356,-1.4343,-1.4347,-1.4345,-1.4353,-1.4358,-1.4361,-1.4372,-1.4365,-1.4369,-1.4363,-1.4383,-1.4363,-1.4366,-1.4362,-1.4362,-1.4363,-1.4387,-1.4387,-1.4388,-1.4388,0,-1.4389,-1.4383,-1.4387,-1.439,-1.4393,-1.4395,-1.4395,-1.4399,-1.4385,-1.439,-1.4396,-1.4399,-1.4404,-1.4409,-1.4411,-1.4409,-1.4396,-1.4395,-1.4399,-1.4402,-1.4405,-1.4403,-1.4342,-1.4393,-1.4393,-1.4392,-1.4392,-1.4392,-1.4425,-1.4433,-1.443,-1.4435,-1.4434,-1.4434,-1.4441,-1.4436,-1.444,-1.4443,-1.4436,-1.4444,-1.4442,-1.4443,-1.4442,-1.4449,-1.444,-1.4445,-1.4447,-1.4448,-1.4451,-1.4405,-1.4449,-1.4449,-1.4449,-1.4449,-1.4449,0,-1.4471,-1.4468,-1.4473,-1.4474,-1.4478,-1.4466,-1.4466,-1.447,-1.4477,-1.4476,-1.448,-1.4487,-1.4492,-1.4486,-1.449,-1.4496,-1.449,-1.4497,-1.4496,-1.4496,-1.4459,-1.4455,-1.4502,-1.4502,-1.4502,-1.4502,-1.4502,-1.4502,-1.4495,-1.4508,-1.4503,-1.4515,-1.4512,-1.452,-1.4521,-1.4522,-1.4521,-1.4529,-1.4533,-1.4529,-1.4526,-1.453,-1.4534,-1.4532,-1.4534,-1.4543,-1.4539,-1.4504,-1.4499,-1.4494,-1.449,-1.4544,-1.4544,-1.4576,-1.4576,-1.4576]},{"header":{"parameterUnit":"m.s-1","parameterCategory":1,"la1":30.2991,"la2":30.254,"lo1":-89.0895,"lo2":-89.0444,"dy":0.0017,"dx":0.0017,"nx":28,"ny":28,"refTime":"2024-05-20T09:00:00:Z","depth":0,"parameterNumber":3,"parameterNumberName":"V-component_of_WINDS"},"data":[0,0,0,0,0,0,0,0,0,0,0,0,0,0,0,0,0,0,0,0,0,0,0,0,0,0,0,0,0,0,0,0,0,0,0,0,0,0,0,0,0,0,0,0,0,0,0,0,0,0,0,0,0,0,0,0,0,0,0.9257,0.9256,0,0.9241,0.9241,0.924,0.9209,0.9209,0.9208,0.9207,0.919,0.919,0.919,0,0,0,0,0,0,0,0,0,0,0,0,0,0.926,0.926,0.9257,0.9256,0.9256,0.9241,0.9241,0.924,0.9209,0.9209,0.9208,0.9207,0.919,0.919,0.919,0,0,0,0,0,0,0,0,0,0,0,0,0,0.9253,0.926,0.9257,0.9239,0.9237,0.9241,0.9241,0.924,0.921,0.9209,0.9208,0.9207,0.919,0.919,0.919,0.921,0,0,0.9191,0.9191,0,0,0,0,0,0,0,0,0.9253,0.9253,0.9242,0.924,0.9238,0.9226,0.9235,0.923,0.921,0.922,0.9207,0.9206,0.9203,0.9202,0.9201,0.9209,0.9208,0.9191,0.9191,0.9191,0.9191,0,0,0,0,0,0,0,0.9254,0.9253,0.925,0.9242,0.924,0.9232,0.923,0.9234,0.9217,0.9219,0.9217,0.9215,0.9202,0.9201,0.92,0.9208,0.9191,0.9191,0.9191,0.9191,0.9232,0.9233,0,0,0,0,0,0,0.9257,0.9254,0.9251,0.925,0.9244,0.9232,0.923,0.9231,0.9217,0.9214,0.9216,0.9214,0.9201,0.92,0.9199,0.9222,0.9191,0.9191,0.9191,0.9231,0.9232,0.9233,0,0,0,0,0,0,0.9257,0.9257,0.9251,0.9251,0.925,0.9233,0.9234,0.9231,0.923,0.9214,0.9211,0.9219,0.92,0.9199,0.9208,0.9221,0.9191,0.9191,0.923,0.9232,0.9233,0.9267,0,0,0,0,0,0,0.9257,0.9257,0.9264,0.9252,0.925,0.926,0.9235,0.9231,0.9231,0.9228,0.9216,0.9213,0.9199,0.9208,0.9208,0.9221,0.9192,0.9229,0.9231,0.9232,0.9264,0.9269,0.9273,0,0,0,0,0,0.9257,0.9274,0.9265,0.9265,0.9259,0.9261,0.926,0.9245,0.9232,0.9239,0.9229,0.9213,0.9219,0.9209,0.9209,0.9222,0.9228,0.923,0.9232,0.9262,0.9268,0.9273,0,0,0,0,0,0,0.9288,0.9272,0.9262,0.9275,0.927,0.9256,0.9264,0.9251,0.9249,0.9246,0.9227,0.9225,0.9236,0.9229,0.9218,0.924,0.9221,0.9224,0.9244,0.9249,0.9254,0.9255,0.9192,0,0,0,0,0,0.9296,0.93,0.9285,0.9298,0.9296,0.9281,0.9281,0.927,0.9264,0.9261,0.9252,0.9246,0.9247,0.9248,0.9247,0.9263,0.9261,0.9272,0.9277,0.928,0.9283,0.9292,0.9297,0.9241,0.9241,0.9241,0,0,0.9313,0.9305,0.9308,0.9304,0.9299,0.9303,0.9279,0.9284,0.9287,0.9262,0.927,0.9263,0.9255,0.9268,0.9273,0.9263,0.9298,0.9283,0.9286,0.9287,0.9294,0.93,0.9305,0.9242,0.9242,0.9242,0,0,0.9347,0.9341,0.9351,0.9347,0.9339,0.9329,0.9332,0.932,0.9315,0.9322,0.9304,0.9307,0.9308,0.9304,0.9302,0.9335,0.9321,0.9335,0.9359,0.9368,0.9372,0.9376,0.9389,0.9393,0.9338,0.9338,0.9338,0,0.9369,0.9374,0.9358,0.9365,0.9364,0.9342,0.9352,0.9349,0.9341,0.9341,0.933,0.9333,0.9326,0.9338,0.9346,0.9345,0.9347,0.9337,0.9373,0.9377,0.938,0.9392,0.9396,0.934,0.934,0.9339,0.9339,0,0.9402,0.9407,0.9416,0.941,0.941,0.9419,0.9404,0.9406,0.9395,0.9386,0.9394,0.9386,0.9384,0.9386,0.9374,0.9396,0.939,0.9377,0.9357,0.9388,0.9398,0.9403,0.9342,0.9342,0.9341,0.9341,0,0,0.9454,0.944,0.9444,0.9442,0.9432,0.9435,0.9443,0.9442,0.9444,0.944,0.9447,0.9449,0.9436,0.9434,0.9422,0.943,0.9458,0.9415,0.9415,0.9424,0.9482,0.9493,0.9499,0.9448,0.9449,0.945,0.9483,0,0.9486,0.9499,0.9485,0.9501,0.9505,0.9484,0.9491,0.9486,0.9479,0.9481,0.9472,0.9474,0.9457,0.9456,0.9462,0.9453,0.9469,0.945,0.9454,0.9455,0.9458,0.9504,0.9516,0.9548,0.9487,0.9488,0.9488,0,0.9524,0.9523,0.954,0.953,0.9532,0.9538,0.9536,0.9539,0.9533,0.9527,0.9525,0.9511,0.9518,0.95,0.951,0.9497,0.9498,0.9494,0.9494,0.9495,0.9474,0.9506,0.9557,0.9562,0.9495,0.9494,0.9494,0,0.9562,0.9564,0.9574,0.9573,0.9562,0.9567,0.9563,0.9556,0.9557,0.9555,0.9555,0.9554,0.9554,0.9554,0.954,0.9527,0.9552,0.9532,0.9548,0.9548,0.9554,0.9554,0.9606,0.9554,0.9554,0.9553,0.9553,0,0.9599,0.961,0.9591,0.9598,0.961,0.9593,0.9606,0.9599,0.9594,0.9599,0.9581,0.9586,0.9567,0.9571,0.956,0.9571,0.957,0.9566,0.9563,0.9568,0.9568,0.9568,0.9566,0.9555,0.9554,0.9554,0.9554,0,0.9642,0.963,0.964,0.963,0.9627,0.9637,0.9627,0.9633,0.9624,0.9631,0.9631,0.9618,0.9621,0.9607,0.9607,0.96,0.9616,0.9609,0.9619,0.9617,0.9633,0.9632,0.9688,0.9695,0.9637,0.9638,0.9638,0,0.9667,0.9675,0.9666,0.9668,0.9665,0.9669,0.967,0.9654,0.9655,0.965,0.9657,0.9658,0.9659,0.9665,0.9654,0.9655,0.9648,0.9668,0.9648,0.9653,0.9649,0.9649,0.965,0.9672,0.9673,0.9673,0.9674,0,0.9713,0.9707,0.9708,0.9709,0.971,0.9709,0.9707,0.971,0.9693,0.9696,0.9699,0.97,0.97,0.9702,0.9701,0.9696,0.9683,0.968,0.9684,0.9689,0.9694,0.9693,0.963,0.9679,0.9678,0.9678,0.9678,0.9677,0.9748,0.9755,0.975,0.9752,0.9749,0.9748,0.9753,0.9746,0.9748,0.9748,0.9739,0.9744,0.9739,0.9735,0.9732,0.9736,0.9727,0.9732,0.9734,0.9735,0.9739,0.9694,0.9736,0.9736,0.9736,0.9735,0.9735,0,0.9793,0.9789,0.9792,0.979,0.9793,0.978,0.9777,0.978,0.9785,0.9781,0.9783,0.9787,0.9789,0.978,0.978,0.9785,0.9779,0.9786,0.9786,0.9785,0.9747,0.9744,0.9791,0.9791,0.9791,0.9791,0.9791,0.9791,0.9817,0.9829,0.9822,0.9832,0.9827,0.9832,0.9832,0.9831,0.9828,0.9834,0.9836,0.983,0.9824,0.9825,0.9826,0.9823,0.9825,0.9834,0.9829,0.9793,0.9788,0.9783,0.978,0.9835,0.9835,0.9868,0.9868,0.9868]}]]